Preview of NWS' New Version of Forecast
This preview is not operational and should not be used for support decisions.

Regional Weather Roundup (RWR)

Issued by National Weather Service (NWS)

                            
000
ASUS44 KJAN 230710
RWRMS 

MISSISSIPPI HOURLY WEATHER ROUNDUP
NATIONAL WEATHER SERVICE JACKSON MS
200 AM CDT SUN JUN 23 2019

NOTE: "FAIR: INDICATES FEW OR NO CLOUDS BELOW 12,000 FEET WITH NO
SIGNIFICANT WEATHER AND/OR OBSTRUCTIONS TO VISIBILITY.

MSZ001>002-007>008-010>013-018>021-025>028-034>036-230800-
NORTHWEST MISSISSIPPI
  
CITY           SKY/WX    TMP DP  RH WIND       PRES   REMARKS
BATESVILLE       N/A     73  70  88 CALM      29.97F                  
CLARKSDALE       N/A     81  77  89 SE8       29.96F                  
CLEVELAND      PTSUNNY   81  75  82 S6        29.96F                  
GREENWOOD      FAIR      80  73  79 S8        29.98F                  
GREENVILLE     FAIR      82  76  81 S7        29.96S                  
OLIVE BRANCH     N/A     70  70 100 S5        29.98F                  
OXFORD         FAIR      70  68  94 SE7       30.01F                  
TUNICA           N/A     73  70  88 S8        29.96F                  
WINONA         FAIR      76  76 100 S3        30.00F                  
$$

MSZ003>006-009-014>017-022>024-029>033-037>039-230800-
NORTHEAST MISSISSIPPI
  
CITY           SKY/WX    TMP DP  RH WIND       PRES   REMARKS
ABERDEEN       FAIR      68  63  83 S6        30.02F HAZE             
COLUMBUS AFB   FAIR      70  68  95 SE6       30.01F                  
CORINTH        FAIR      73  66  78 SW5       29.99R                  
GOLDN TRIANGLE FAIR      73  70  90 S8        30.02S                  
STARKVILLE       N/A     72  70  94 S5        30.02F                  
TUPELO         FAIR      72  67  84 SW7       30.00F                  
$$

MSZ040-058-230800-
CENTRAL MISSISSIPPI
  
CITY           SKY/WX    TMP DP  RH WIND       PRES   REMARKS
JACKSON INTL   FAIR      81  75  82 S8        30.02F                  
JACKSON HAWKNS FAIR      81  77  88 S9        30.02F                  
MADISON        FAIR      79  79 100 CALM      30.01F                  
MERIDIAN KEY   FAIR      80  75  84 S7        30.03F                  
MERIDIAN NAS   FAIR      75  71  87 SE3       30.03F                  
RAYMOND        FAIR      81  81 100 S8G14     30.00F HX  91           
VICKSBURG VKS    N/A     81  79  94 S7        30.00S                  
$$

MSZ059>079-230800-
SOUTH MISSISSIPPI
  
CITY           SKY/WX    TMP DP  RH WIND       PRES   REMARKS
BROOKHAVEN     FAIR      79  77  94 E8        30.06S                  
HATTIESBURG    FAIR      80  76  87 S6        30.06F                  
LAUREL         SUNNY     80  78  92 S9        30.05F                  
MCCOMB         FAIR      79  76  90 S8        30.05F                  
NATCHEZ        FAIR      79  76  90 S13       30.01F                  
PINE BELT      FAIR      79  78  97 S6        30.07F                  
$$

MSZ080>082-230800-
COASTAL MISSISSIPPI
  
CITY           SKY/WX    TMP DP  RH WIND       PRES   REMARKS
BILOXI         FAIR      84  76  77 S9        30.06F HX  93           
PASCAGOULA     FAIR      76  73  91 CALM      30.06F                  
GULFPORT       MOCLDY    84  76  76 S6        30.06F HX  93           
$$

LAZ007>009-015>016-023>026-230800-
NORTHEAST LOUISIANA
  
CITY           SKY/WX    TMP DP  RH WIND       PRES   REMARKS
BASTROP        FAIR      81  79  94 S9        29.97S HX  90           
TALLULAH/VBURG FAIR      80  76  87 S8        29.99S                  
VIDALIA        FAIR      80  76  87 S10       29.99F                  
$$